Time,TemperatureF,DewpointF,PressureIn,WindDirection,WindDirectionDegrees,WindSpeedMPH,WindSpeedGustMPH,Humidity,HourlyPrecipIn,Conditions,Clouds,dailyrainin,SoftwareType,DateUTC
2013-02-07 00:00:00,16.0,-2.6,30.30,North,355,1.0,1.0,43,0.00,,,0.00,Wunderground v.1.15,2013-02-07 05:00:00,
2013-02-07 00:05:00,15.9,-2.7,30.30,NNE,22,1.0,3.0,43,0.00,,,0.00,Wunderground v.1.15,2013-02-07 05:05:00,
2013-02-07 00:10:00,15.8,-2.3,30.29,North,360,2.0,2.0,44,0.00,,,0.00,Wunderground v.1.15,2013-02-07 05:10:00,
2013-02-07 00:15:00,15.7,-2.9,30.30,NW,325,2.0,2.0,43,0.00,,,0.00,Wunderground v.1.15,2013-02-07 05:15:00,
2013-02-07 00:20:00,15.6,-3.0,30.30,West,267,2.0,2.0,43,0.00,,,0.00,Wunderground v.1.15,2013-02-07 05:20:00,
2013-02-07 00:25:00,15.5,-2.6,30.30,NE,51,2.0,2.0,44,0.00,,,0.00,Wunderground v.1.15,2013-02-07 05:25:00,
2013-02-07 00:30:00,15.4,-2.7,30.31,NNE,16,1.0,1.0,44,0.00,,,0.00,Wunderground v.1.15,2013-02-07 05:30:00,
2013-02-07 00:35:00,15.3,-2.3,30.31,NNE,15,0.0,1.0,45,0.00,,,0.00,Wunderground v.1.15,2013-02-07 05:35:00,
2013-02-07 00:45:00,15.2,-2.8,30.31,North,360,2.0,5.0,44,0.00,,,0.00,Wunderground v.1.15,2013-02-07 05:45:00,
2013-02-07 00:50:00,15.1,-2.9,30.30,North,355,1.0,1.0,44,0.00,,,0.00,Wunderground v.1.15,2013-02-07 05:50:00,
2013-02-07 00:55:00,15.0,-2.6,30.31,North,9,1.0,5.0,45,0.00,,,0.00,Wunderground v.1.15,2013-02-07 05:55:00,
2013-02-07 01:00:00,15.0,-2.6,30.31,NNE,31,2.0,2.0,45,0.00,,,0.00,Wunderground v.1.15,2013-02-07 06:00:00,
2013-02-07 01:05:00,14.8,-2.7,30.31,West,269,1.0,2.0,45,0.00,,,0.00,Wunderground v.1.15,2013-02-07 06:05:00,
2013-02-07 01:15:00,14.5,-2.1,30.31,NE,45,0.0,3.0,47,0.00,,,0.00,Wunderground v.1.15,2013-02-07 06:15:00,
2013-02-07 01:25:00,14.4,-2.6,30.32,ENE,65,1.0,1.0,46,0.00,,,0.00,Wunderground v.1.15,2013-02-07 06:25:00,
2013-02-07 01:30:00,14.3,-2.3,30.32,NE,44,1.0,3.0,47,0.00,,,0.00,Wunderground v.1.15,2013-02-07 06:30:00,
2013-02-07 01:35:00,14.4,-2.2,30.32,South,179,1.0,3.0,47,0.00,,,0.00,Wunderground v.1.15,2013-02-07 06:35:00,
2013-02-07 01:40:00,14.4,-2.2,30.32,NNE,13,1.0,1.0,47,0.00,,,0.00,Wunderground v.1.15,2013-02-07 06:40:00,
2013-02-07 01:45:00,14.4,-2.6,30.32,North,355,2.0,4.0,46,0.00,,,0.00,Wunderground v.1.15,2013-02-07 06:45:00,
2013-02-07 01:50:00,14.5,-2.6,30.32,NNW,346,2.0,2.0,46,0.00,,,0.00,Wunderground v.1.15,2013-02-07 06:50:00,
2013-02-07 02:00:00,14.3,-2.7,30.32,WNW,291,1.0,2.0,46,0.00,,,0.00,Wunderground v.1.15,2013-02-07 07:00:00,
2013-02-07 02:05:00,14.3,-2.7,30.33,NNW,344,2.0,2.0,46,0.00,,,0.00,Wunderground v.1.15,2013-02-07 07:05:00,
2013-02-07 02:15:00,14.2,-2.8,30.33,SW,219,1.0,2.0,46,0.00,,,0.00,Wunderground v.1.15,2013-02-07 07:15:00,
2013-02-07 02:20:00,14.1,-2.5,30.33,West,259,1.0,1.0,47,0.00,,,0.00,Wunderground v.1.15,2013-02-07 07:20:00,
2013-02-07 02:25:00,14.0,-2.6,30.34,SSW,213,1.0,1.0,47,0.00,,,0.00,Wunderground v.1.15,2013-02-07 07:25:00,
2013-02-07 02:30:00,13.9,-2.7,30.33,SSW,213,0.0,0.0,47,0.00,,,0.00,Wunderground v.1.15,2013-02-07 07:30:00,
2013-02-07 02:40:00,13.5,-2.6,30.33,NNW,342,0.0,0.0,48,0.00,,,0.00,Wunderground v.1.15,2013-02-07 07:40:00,
2013-02-07 02:45:00,13.4,-2.7,30.33,North,355,1.0,2.0,48,0.00,,,0.00,Wunderground v.1.15,2013-02-07 07:45:00,
2013-02-07 02:50:00,13.5,-2.6,30.34,NW,323,2.0,2.0,48,0.00,,,0.00,Wunderground v.1.15,2013-02-07 07:50:00,
2013-02-07 02:55:00,13.5,-3.0,30.34,NNW,330,1.0,2.0,47,0.00,,,0.00,Wunderground v.1.15,2013-02-07 07:55:00,
2013-02-07 03:00:00,13.4,-2.7,30.34,West,279,1.0,1.0,48,0.00,,,0.00,Wunderground v.1.15,2013-02-07 08:00:00,
2013-02-07 03:05:00,13.5,-2.6,30.33,NNW,345,2.0,2.0,48,0.00,,,0.00,Wunderground v.1.15,2013-02-07 08:05:00,
2013-02-07 03:15:00,13.4,-3.1,30.33,NNW,331,1.0,3.0,47,0.00,,,0.00,Wunderground v.1.15,2013-02-07 08:15:00,
2013-02-07 03:20:00,13.3,-2.8,30.33,NNW,333,1.0,1.0,48,0.00,,,0.00,Wunderground v.1.15,2013-02-07 08:20:00,
2013-02-07 03:25:00,13.2,-2.9,30.33,ENE,68,1.0,2.0,48,0.00,,,0.00,Wunderground v.1.15,2013-02-07 08:25:00,
2013-02-07 03:30:00,13.1,-2.5,30.34,East,86,1.0,1.0,49,0.00,,,0.00,Wunderground v.1.15,2013-02-07 08:30:00,
2013-02-07 03:35:00,13.0,-3.0,30.34,West,275,1.0,1.0,48,0.00,,,0.00,Wunderground v.1.15,2013-02-07 08:35:00,
2013-02-07 03:40:00,13.0,-2.6,30.34,NW,309,1.0,2.0,49,0.00,,,0.00,Wunderground v.1.15,2013-02-07 08:40:00,
2013-02-07 03:45:00,13.0,-2.6,30.34,NNE,14,2.0,2.0,49,0.00,,,0.00,Wunderground v.1.15,2013-02-07 08:45:00,
2013-02-07 03:50:00,12.9,-2.7,30.35,North,349,2.0,2.0,49,0.00,,,0.00,Wunderground v.1.15,2013-02-07 08:50:00,
2013-02-07 04:00:00,12.6,-3.0,30.34,WNW,294,0.0,0.0,49,0.00,,,0.00,Wunderground v.1.15,2013-02-07 09:00:00,
2013-02-07 04:05:00,12.6,-3.0,30.36,NW,309,0.0,0.0,49,0.00,,,0.00,Wunderground v.1.15,2013-02-07 09:05:00,
2013-02-07 04:15:00,12.5,-2.6,30.36,NW,317,1.0,1.0,50,0.00,,,0.00,Wunderground v.1.15,2013-02-07 09:15:00,
2013-02-07 04:20:00,12.5,-2.6,30.37,SW,229,1.0,2.0,50,0.00,,,0.00,Wunderground v.1.15,2013-02-07 09:20:00,
2013-02-07 04:30:00,12.3,-2.4,30.38,NW,326,1.0,1.0,51,0.00,,,0.00,Wunderground v.1.15,2013-02-07 09:30:00,
2013-02-07 04:35:00,12.2,-2.5,30.38,NW,326,1.0,6.0,51,0.00,,,0.00,Wunderground v.1.15,2013-02-07 09:35:00,
2013-02-07 04:45:00,12.1,-3.0,30.39,NNW,345,2.0,2.0,50,0.00,,,0.00,Wunderground v.1.15,2013-02-07 09:45:00,
2013-02-07 04:50:00,12.0,-2.3,30.39,NNW,346,0.0,0.0,52,0.00,,,0.00,Wunderground v.1.15,2013-02-07 09:50:00,
2013-02-07 04:55:00,11.8,-2.5,30.39,North,355,0.0,0.0,52,0.00,,,0.00,Wunderground v.1.15,2013-02-07 09:55:00,
2013-02-07 05:05:00,11.8,-2.9,30.40,NNW,346,1.0,1.0,51,0.00,,,0.00,Wunderground v.1.15,2013-02-07 10:05:00,
2013-02-07 05:15:00,11.6,-2.3,30.40,South,182,1.0,1.0,53,0.00,,,0.00,Wunderground v.1.15,2013-02-07 10:15:00,
2013-02-07 05:25:00,11.4,-2.4,30.41,SSW,213,0.0,1.0,53,0.00,,,0.00,Wunderground v.1.15,2013-02-07 10:25:00,
2013-02-07 05:30:00,11.4,-2.4,30.40,South,180,1.0,1.0,53,0.00,,,0.00,Wunderground v.1.15,2013-02-07 10:30:00,
2013-02-07 05:35:00,11.3,-2.5,30.40,South,183,0.0,2.0,53,0.00,,,0.00,Wunderground v.1.15,2013-02-07 10:35:00,
2013-02-07 05:40:00,11.1,-2.7,30.40,WSW,245,0.0,0.0,53,0.00,,,0.00,Wunderground v.1.15,2013-02-07 10:40:00,
2013-02-07 05:45:00,11.0,-2.8,30.41,WSW,247,0.0,1.0,53,0.00,,,0.00,Wunderground v.1.15,2013-02-07 10:45:00,
2013-02-07 05:50:00,11.0,-2.8,30.41,West,276,0.0,2.0,53,0.00,,,0.00,Wunderground v.1.15,2013-02-07 10:50:00,
2013-02-07 06:00:00,10.9,-2.5,30.41,SSW,198,0.0,0.0,54,0.00,,,0.00,Wunderground v.1.15,2013-02-07 11:00:00,
2013-02-07 06:05:00,10.8,-2.6,30.41,SSW,198,0.0,0.0,54,0.00,,,0.00,Wunderground v.1.15,2013-02-07 11:05:00,
2013-02-07 06:15:00,10.6,-2.4,30.41,SSW,198,0.0,0.0,55,0.00,,,0.00,Wunderground v.1.15,2013-02-07 11:15:00,
2013-02-07 06:20:00,10.5,-2.1,30.41,SSW,198,0.0,0.0,56,0.00,,,0.00,Wunderground v.1.15,2013-02-07 11:20:00,
2013-02-07 06:25:00,10.5,-2.5,30.41,SSW,198,0.0,0.0,55,0.00,,,0.00,Wunderground v.1.15,2013-02-07 11:25:00,
2013-02-07 06:30:00,10.4,-1.8,30.42,SSW,199,0.0,0.0,57,0.00,,,0.00,Wunderground v.1.15,2013-02-07 11:30:00,
2013-02-07 06:40:00,10.2,-1.7,30.42,SSW,199,0.0,0.0,58,0.00,,,0.00,Wunderground v.1.15,2013-02-07 11:40:00,
2013-02-07 06:45:00,10.0,-1.5,30.42,SSW,199,0.0,0.0,59,0.00,,,0.00,Wunderground v.1.15,2013-02-07 11:45:00,
2013-02-07 06:50:00,9.9,-1.6,30.43,SSW,199,0.0,0.0,59,0.00,,,0.00,Wunderground v.1.15,2013-02-07 11:50:00,
2013-02-07 06:55:00,9.8,-1.0,30.44,SSW,199,0.0,0.0,61,0.00,,,0.00,Wunderground v.1.15,2013-02-07 11:55:00,
2013-02-07 07:00:00,9.6,-0.8,30.44,SSW,199,0.0,0.0,62,0.00,,,0.00,Wunderground v.1.15,2013-02-07 12:00:00,
2013-02-07 07:05:00,9.4,-1.0,30.44,SSW,199,0.0,0.0,62,0.00,,,0.00,Wunderground v.1.15,2013-02-07 12:05:00,
2013-02-07 07:15:00,9.1,-1.3,30.46,SSW,199,0.0,0.0,62,0.00,,,0.00,Wunderground v.1.15,2013-02-07 12:15:00,
2013-02-07 07:25:00,8.9,-1.5,30.46,SSW,199,0.0,0.0,62,0.00,,,0.00,Wunderground v.1.15,2013-02-07 12:25:00,
2013-02-07 07:30:00,9.1,-2.0,30.47,SSW,200,0.0,0.0,60,0.00,,,0.00,Wunderground v.1.15,2013-02-07 12:30:00,
2013-02-07 07:40:00,9.9,-1.9,30.48,North,5,0.0,0.0,58,0.00,,,0.00,Wunderground v.1.15,2013-02-07 12:40:00,
2013-02-07 07:45:00,10.0,-1.9,30.48,ENE,71,0.0,0.0,58,0.00,,,0.00,Wunderground v.1.15,2013-02-07 12:45:00,
2013-02-07 07:50:00,10.3,-1.9,30.49,WSW,238,0.0,0.0,57,0.00,,,0.00,Wunderground v.1.15,2013-02-07 12:50:00,
2013-02-07 07:55:00,10.7,-1.6,30.49,NNW,327,1.0,1.0,57,0.00,,,0.00,Wunderground v.1.15,2013-02-07 12:55:00,
2013-02-07 08:00:00,10.8,-1.5,30.49,East,96,1.0,1.0,57,0.00,,,0.00,Wunderground v.1.15,2013-02-07 13:00:00,
2013-02-07 08:05:00,11.0,-1.7,30.49,WNW,292,1.0,5.0,56,0.00,,,0.00,Wunderground v.1.15,2013-02-07 13:05:00,
2013-02-07 08:15:00,11.4,-1.3,30.50,West,273,1.0,3.0,56,0.00,,,0.00,Wunderground v.1.15,2013-02-07 13:15:00,
2013-02-07 08:20:00,11.5,-2.0,30.50,NNE,13,2.0,2.0,54,0.00,,,0.00,Wunderground v.1.15,2013-02-07 13:20:00,
2013-02-07 08:25:00,11.6,-1.9,30.50,West,265,2.0,2.0,54,0.00,,,0.00,Wunderground v.1.15,2013-02-07 13:25:00,
2013-02-07 08:35:00,11.9,-1.6,30.49,WNW,295,2.0,10.0,54,0.00,,,0.00,Wunderground v.1.15,2013-02-07 13:35:00,
2013-02-07 08:40:00,11.8,-2.1,30.50,North,360,4.0,10.0,53,0.00,,,0.00,Wunderground v.1.15,2013-02-07 13:40:00,
2013-02-07 08:45:00,12.0,-2.7,30.51,NNE,29,4.0,4.0,51,0.00,,,0.00,Wunderground v.1.15,2013-02-07 13:45:00,
2013-02-07 08:50:00,12.4,-1.5,30.51,NE,51,2.0,4.0,53,0.00,,,0.00,Wunderground v.1.15,2013-02-07 13:50:00,
2013-02-07 08:55:00,12.7,-2.0,30.51,NW,319,2.0,3.0,51,0.00,,,0.00,Wunderground v.1.15,2013-02-07 13:55:00,
2013-02-07 09:05:00,12.5,-2.6,30.52,NW,321,4.0,5.0,50,0.00,,,0.00,Wunderground v.1.15,2013-02-07 14:05:00,
2013-02-07 09:15:00,12.7,-2.5,30.52,NNE,21,3.0,3.0,50,0.00,,,0.00,Wunderground v.1.15,2013-02-07 14:15:00,
2013-02-07 09:20:00,13.0,-2.6,30.52,NW,309,3.0,4.0,49,0.00,,,0.00,Wunderground v.1.15,2013-02-07 14:20:00,
2013-02-07 09:25:00,13.1,-2.1,30.52,North,360,3.0,6.0,50,0.00,,,0.00,Wunderground v.1.15,2013-02-07 14:25:00,
2013-02-07 09:30:00,13.0,-3.0,30.52,North,360,4.0,4.0,48,0.00,,,0.00,Wunderground v.1.15,2013-02-07 14:30:00,
2013-02-07 09:35:00,13.2,-2.4,30.53,NNE,22,4.0,4.0,49,0.00,,,0.00,Wunderground v.1.15,2013-02-07 14:35:00,
2013-02-07 09:40:00,13.4,-2.7,30.52,NNE,29,4.0,7.0,48,0.00,,,0.00,Wunderground v.1.15,2013-02-07 14:40:00,
2013-02-07 09:45:00,13.5,-2.6,30.53,North,360,5.0,9.0,48,0.00,,,0.00,Wunderground v.1.15,2013-02-07 14:45:00,
2013-02-07 10:00:00,13.9,-2.7,30.53,NNE,32,5.0,5.0,47,0.00,,,0.00,Wunderground v.1.15,2013-02-07 15:00:00,
2013-02-07 10:05:00,14.2,-2.4,30.53,ENE,59,3.0,5.0,47,0.00,,,0.00,Wunderground v.1.15,2013-02-07 15:05:00,
2013-02-07 10:15:00,14.7,-2.8,30.53,SSW,200,3.0,4.0,45,0.00,,,0.00,Wunderground v.1.15,2013-02-07 15:15:00,
2013-02-07 10:20:00,14.9,-2.6,30.54,WNW,288,2.0,5.0,45,0.00,,,0.00,Wunderground v.1.15,2013-02-07 15:20:00,
2013-02-07 10:25:00,15.0,-2.6,30.54,NW,312,3.0,7.0,45,0.00,,,0.00,Wunderground v.1.15,2013-02-07 15:25:00,
2013-02-07 10:30:00,14.8,-3.7,30.54,NNE,16,4.0,4.0,43,0.00,,,0.00,Wunderground v.1.15,2013-02-07 15:30:00,
2013-02-07 10:35:00,15.1,-3.4,30.53,NW,325,3.0,4.0,43,0.00,,,0.00,Wunderground v.1.15,2013-02-07 15:35:00,
2013-02-07 10:45:00,15.7,-2.9,30.54,NNW,344,3.0,4.0,43,0.00,,,0.00,Wunderground v.1.15,2013-02-07 15:45:00,
2013-02-07 10:55:00,16.2,-3.4,30.53,WNW,298,4.0,4.0,41,0.00,,,0.00,Wunderground v.1.15,2013-02-07 15:55:00,
2013-02-07 11:00:00,16.1,-3.5,30.54,NNE,18,6.0,6.0,41,0.00,,,0.00,Wunderground v.1.15,2013-02-07 16:00:00,
2013-02-07 11:05:00,16.3,-3.3,30.54,WNW,286,6.0,6.0,41,0.00,,,0.00,Wunderground v.1.15,2013-02-07 16:05:00,
2013-02-07 11:15:00,17.0,-2.7,30.53,SW,226,4.0,4.0,41,0.00,,,0.00,Wunderground v.1.15,2013-02-07 16:15:00,
2013-02-07 11:20:00,17.1,-3.1,30.53,WNW,283,3.0,3.0,40,0.00,,,0.00,Wunderground v.1.15,2013-02-07 16:20:00,
2013-02-07 11:25:00,17.2,-3.0,30.53,NE,39,3.0,7.0,40,0.00,,,0.00,Wunderground v.1.15,2013-02-07 16:25:00,
2013-02-07 11:30:00,17.5,-2.8,30.53,WNW,287,4.0,4.0,40,0.00,,,0.00,Wunderground v.1.15,2013-02-07 16:30:00,
2013-02-07 11:35:00,17.6,-3.7,30.52,NNW,329,5.0,5.0,38,0.00,,,0.00,Wunderground v.1.15,2013-02-07 16:35:00,
2013-02-07 11:40:00,17.6,-3.7,30.52,North,350,5.0,5.0,38,0.00,,,0.00,Wunderground v.1.15,2013-02-07 16:40:00,
2013-02-07 11:50:00,18.1,-3.3,30.51,North,355,5.0,5.0,38,0.00,,,0.00,Wunderground v.1.15,2013-02-07 16:50:00,
2013-02-07 11:55:00,18.4,-3.0,30.52,NNE,32,3.0,5.0,38,0.00,,,0.00,Wunderground v.1.15,2013-02-07 16:55:00,
2013-02-07 12:00:00,18.8,-2.7,30.51,SSW,211,2.0,4.0,38,0.00,,,0.00,Wunderground v.1.15,2013-02-07 17:00:00,
2013-02-07 12:05:00,19.2,-2.3,30.52,NNE,17,2.0,4.0,38,0.00,,,0.00,Wunderground v.1.15,2013-02-07 17:05:00,
2013-02-07 12:15:00,19.5,-2.0,30.51,NW,322,3.0,4.0,38,0.00,,,0.00,Wunderground v.1.15,2013-02-07 17:15:00,
2013-02-07 12:20:00,19.5,-2.0,30.51,NW,319,2.0,2.0,38,0.00,,,0.00,Wunderground v.1.15,2013-02-07 17:20:00,
2013-02-07 12:25:00,19.4,-2.7,30.51,NW,319,3.0,3.0,37,0.00,,,0.00,Wunderground v.1.15,2013-02-07 17:25:00,
2013-02-07 12:30:00,19.7,-1.8,30.50,SSW,206,3.0,3.0,38,0.00,,,0.00,Wunderground v.1.15,2013-02-07 17:30:00,
2013-02-07 12:35:00,19.9,-1.7,30.50,North,10,2.0,4.0,38,0.00,,,0.00,Wunderground v.1.15,2013-02-07 17:35:00,
2013-02-07 12:45:00,20.5,-1.7,30.50,NW,317,2.0,2.0,37,0.00,,,0.00,Wunderground v.1.15,2013-02-07 17:45:00,
2013-02-07 12:55:00,21.0,-1.8,30.50,NW,313,1.0,1.0,36,0.00,,,0.00,Wunderground v.1.15,2013-02-07 17:55:00,
2013-02-07 13:05:00,21.4,-2.1,30.50,SE,145,2.0,4.0,35,0.00,,,0.00,Wunderground v.1.15,2013-02-07 18:05:00,
2013-02-07 13:15:00,21.4,-2.1,30.50,North,349,2.0,2.0,35,0.00,,,0.00,Wunderground v.1.15,2013-02-07 18:15:00,
2013-02-07 13:20:00,21.6,-1.9,30.50,WNW,290,1.0,2.0,35,0.00,,,0.00,Wunderground v.1.15,2013-02-07 18:20:00,
2013-02-07 13:30:00,21.6,-1.9,30.50,NNW,346,2.0,3.0,35,0.00,,,0.00,Wunderground v.1.15,2013-02-07 18:30:00,
2013-02-07 13:35:00,21.8,-2.3,30.49,NW,317,3.0,3.0,34,0.00,,,0.00,Wunderground v.1.15,2013-02-07 18:35:00,
2013-02-07 13:40:00,22.2,-2.6,30.49,NW,315,2.0,4.0,33,0.00,,,0.00,Wunderground v.1.15,2013-02-07 18:40:00,
2013-02-07 13:45:00,22.6,-1.0,30.48,NE,52,2.0,2.0,35,0.00,,,0.00,Wunderground v.1.15,2013-02-07 18:45:00,
2013-02-07 13:50:00,22.9,-2.0,30.49,SSW,203,2.0,2.0,33,0.00,,,0.00,Wunderground v.1.15,2013-02-07 18:50:00,
2013-02-07 13:55:00,22.8,-2.1,30.49,NNE,28,2.0,2.0,33,0.00,,,0.00,Wunderground v.1.15,2013-02-07 18:55:00,
2013-02-07 14:05:00,22.7,-1.5,30.49,NNW,328,1.0,3.0,34,0.00,,,0.00,Wunderground v.1.15,2013-02-07 19:05:00,
2013-02-07 14:15:00,23.0,-2.5,30.48,NW,326,1.0,6.0,32,0.00,,,0.00,Wunderground v.1.15,2013-02-07 19:15:00,
2013-02-07 14:20:00,22.6,-1.6,30.48,NNE,28,2.0,5.0,34,0.00,,,0.00,Wunderground v.1.15,2013-02-07 19:20:00,
2013-02-07 14:30:00,22.7,-1.5,30.48,WNW,298,1.0,1.0,34,0.00,,,0.00,Wunderground v.1.15,2013-02-07 19:30:00,
2013-02-07 14:35:00,23.2,-1.1,30.48,ESE,105,1.0,1.0,34,0.00,,,0.00,Wunderground v.1.15,2013-02-07 19:35:00,
2013-02-07 14:40:00,23.4,-0.9,30.49,NNE,22,2.0,5.0,34,0.00,,,0.00,Wunderground v.1.15,2013-02-07 19:40:00,
2013-02-07 14:45:00,22.9,-2.0,30.48,NNW,344,3.0,5.0,33,0.00,,,0.00,Wunderground v.1.15,2013-02-07 19:45:00,
2013-02-07 14:50:00,23.1,-1.8,30.48,North,355,2.0,2.0,33,0.00,,,0.00,Wunderground v.1.15,2013-02-07 19:50:00,
2013-02-07 14:55:00,23.1,-1.8,30.48,North,355,1.0,2.0,33,0.00,,,0.00,Wunderground v.1.15,2013-02-07 19:55:00,
2013-02-07 15:05:00,23.0,-1.9,30.48,NW,318,3.0,6.0,33,0.00,,,0.00,Wunderground v.1.15,2013-02-07 20:05:00,
2013-02-07 15:15:00,23.0,-1.9,30.47,North,355,2.0,3.0,33,0.00,,,0.00,Wunderground v.1.15,2013-02-07 20:15:00,
2013-02-07 15:20:00,22.9,-1.3,30.48,NNW,338,2.0,2.0,34,0.00,,,0.00,Wunderground v.1.15,2013-02-07 20:20:00,
2013-02-07 15:35:00,23.2,-1.7,30.47,North,5,1.0,5.0,33,0.00,,,0.00,Wunderground v.1.15,2013-02-07 20:35:00,
2013-02-07 15:40:00,22.9,-2.0,30.47,North,360,1.0,5.0,33,0.00,,,0.00,Wunderground v.1.15,2013-02-07 20:40:00,
2013-02-07 15:50:00,22.7,-1.5,30.47,NNW,336,0.0,1.0,34,0.00,,,0.00,Wunderground v.1.15,2013-02-07 20:50:00,
2013-02-07 15:55:00,22.7,-1.5,30.47,NE,49,1.0,3.0,34,0.00,,,0.00,Wunderground v.1.15,2013-02-07 20:55:00,
2013-02-07 16:00:00,22.6,-1.0,30.48,NW,315,1.0,1.0,35,0.00,,,0.00,Wunderground v.1.15,2013-02-07 21:00:00,
2013-02-07 16:05:00,22.7,-1.5,30.47,NNE,27,1.0,1.0,34,0.00,,,0.00,Wunderground v.1.15,2013-02-07 21:05:00,
2013-02-07 16:15:00,22.5,-1.1,30.48,North,9,1.0,1.0,35,0.00,,,0.00,Wunderground v.1.15,2013-02-07 21:15:00,
2013-02-07 16:20:00,22.5,-1.1,30.48,North,9,1.0,1.0,35,0.00,,,0.00,Wunderground v.1.15,2013-02-07 21:20:00,
2013-02-07 16:25:00,22.5,-1.1,30.48,North,9,0.0,1.0,35,0.00,,,0.00,Wunderground v.1.15,2013-02-07 21:25:00,
2013-02-07 16:35:00,22.2,-2.0,30.47,NNE,22,1.0,1.0,34,0.00,,,0.00,Wunderground v.1.15,2013-02-07 21:35:00,
2013-02-07 16:40:00,22.2,-1.3,30.48,NNE,22,0.0,0.0,35,0.00,,,0.00,Wunderground v.1.15,2013-02-07 21:40:00,
2013-02-07 16:45:00,22.1,-2.0,30.48,NNE,22,0.0,0.0,34,0.00,,,0.00,Wunderground v.1.15,2013-02-07 21:45:00,
2013-02-07 16:50:00,22.0,-2.1,30.48,NNE,22,0.0,0.0,34,0.00,,,0.00,Wunderground v.1.15,2013-02-07 21:50:00,
2013-02-07 16:55:00,22.0,-1.5,30.48,NNE,22,0.0,0.0,35,0.00,,,0.00,Wunderground v.1.15,2013-02-07 21:55:00,
2013-02-07 17:00:00,21.9,-1.0,30.48,NNE,22,0.0,0.0,36,0.00,,,0.00,Wunderground v.1.15,2013-02-07 22:00:00,
2013-02-07 17:05:00,21.8,-1.7,30.48,NNE,22,0.0,0.0,35,0.00,,,0.00,Wunderground v.1.15,2013-02-07 22:05:00,
2013-02-07 17:15:00,21.6,-1.3,30.48,NNE,22,0.0,0.0,36,0.00,,,0.00,Wunderground v.1.15,2013-02-07 22:15:00,
2013-02-07 17:20:00,21.5,-0.8,30.48,NNE,22,0.0,0.0,37,0.00,,,0.00,Wunderground v.1.15,2013-02-07 22:20:00,
2013-02-07 17:25:00,21.3,-1.6,30.48,NNE,22,0.0,0.0,36,0.00,,,0.00,Wunderground v.1.15,2013-02-07 22:25:00,
2013-02-07 17:30:00,21.2,-1.6,30.48,NNE,22,0.0,0.0,36,0.00,,,0.00,Wunderground v.1.15,2013-02-07 22:30:00,
2013-02-07 17:35:00,21.1,-0.6,30.48,NNE,22,0.0,1.0,38,0.00,,,0.00,Wunderground v.1.15,2013-02-07 22:35:00,
2013-02-07 17:40:00,21.1,-1.2,30.48,NNE,22,0.0,0.0,37,0.00,,,0.00,Wunderground v.1.15,2013-02-07 22:40:00,
2013-02-07 17:45:00,21.0,-1.2,30.48,NNE,22,0.0,0.0,37,0.00,,,0.00,Wunderground v.1.15,2013-02-07 22:45:00,
2013-02-07 17:55:00,20.8,0.2,30.49,NNE,22,0.0,0.0,40,0.00,,,0.00,Wunderground v.1.15,2013-02-07 22:55:00,
2013-02-07 18:00:00,20.8,-0.3,30.49,NNE,22,0.0,0.0,39,0.00,,,0.00,Wunderground v.1.15,2013-02-07 23:00:00,
2013-02-07 18:05:00,20.8,1.3,30.50,NNE,22,0.0,0.0,42,0.00,,,0.00,Wunderground v.1.15,2013-02-07 23:05:00,
2013-02-07 18:15:00,20.7,1.7,30.50,NNE,22,0.0,0.0,43,0.00,,,0.00,Wunderground v.1.15,2013-02-07 23:15:00,
2013-02-07 18:20:00,20.6,0.1,30.50,NNE,22,0.0,0.0,40,0.00,,,0.00,Wunderground v.1.15,2013-02-07 23:20:00,
2013-02-07 18:25:00,20.6,0.1,30.49,NNE,22,0.0,0.0,40,0.00,,,0.00,Wunderground v.1.15,2013-02-07 23:25:00,
2013-02-07 18:30:00,20.7,0.7,30.50,NNE,22,0.0,0.0,41,0.00,,,0.00,Wunderground v.1.15,2013-02-07 23:30:00,
2013-02-07 18:35:00,20.7,0.7,30.50,NNE,22,0.0,0.0,41,0.00,,,0.00,Wunderground v.1.15,2013-02-07 23:35:00,
2013-02-07 18:45:00,20.7,0.7,30.50,NNE,22,0.0,0.0,41,0.00,,,0.00,Wunderground v.1.15,2013-02-07 23:45:00,
2013-02-07 18:50:00,20.7,0.7,30.50,NNE,22,0.0,0.0,41,0.00,,,0.00,Wunderground v.1.15,2013-02-07 23:50:00,
2013-02-07 18:55:00,20.7,0.1,30.50,NNE,22,0.0,0.0,40,0.00,,,0.00,Wunderground v.1.15,2013-02-07 23:55:00,
2013-02-07 19:00:00,20.7,0.1,30.50,NNE,22,0.0,0.0,40,0.00,,,0.00,Wunderground v.1.15,2013-02-08 00:00:00,
2013-02-07 19:05:00,20.7,0.1,30.50,NNE,22,0.0,0.0,40,0.00,,,0.00,Wunderground v.1.15,2013-02-08 00:05:00,
2013-02-07 19:15:00,20.7,0.7,30.50,NNE,22,0.0,0.0,41,0.00,,,0.00,Wunderground v.1.15,2013-02-08 00:15:00,
2013-02-07 19:20:00,20.7,0.1,30.50,NNE,22,0.0,0.0,40,0.00,,,0.00,Wunderground v.1.15,2013-02-08 00:20:00,
2013-02-07 19:30:00,20.7,1.2,30.50,NNE,22,0.0,0.0,42,0.00,,,0.00,Wunderground v.1.15,2013-02-08 00:30:00,
2013-02-07 19:35:00,20.7,0.7,30.50,NNE,22,0.0,0.0,41,0.00,,,0.00,Wunderground v.1.15,2013-02-08 00:35:00,
2013-02-07 19:45:00,20.7,0.7,30.51,NNE,22,0.0,0.0,41,0.00,,,0.00,Wunderground v.1.15,2013-02-08 00:45:00,
2013-02-07 19:50:00,20.7,0.1,30.51,NNE,22,0.0,0.0,40,0.00,,,0.00,Wunderground v.1.15,2013-02-08 00:50:00,
2013-02-07 19:55:00,20.7,0.7,30.51,NNE,22,0.0,0.0,41,0.00,,,0.00,Wunderground v.1.15,2013-02-08 00:55:00,
2013-02-07 20:00:00,20.7,0.1,30.51,NNE,22,0.0,0.0,40,0.00,,,0.00,Wunderground v.1.15,2013-02-08 01:00:00,
2013-02-07 20:05:00,20.6,1.1,30.51,NNE,22,0.0,0.0,42,0.00,,,0.00,Wunderground v.1.15,2013-02-08 01:05:00,
2013-02-07 20:15:00,20.6,0.1,30.51,NNE,22,0.0,1.0,40,0.00,,,0.00,Wunderground v.1.15,2013-02-08 01:15:00,
2013-02-07 20:25:00,20.5,0.5,30.50,NNE,22,0.0,0.0,41,0.00,,,0.00,Wunderground v.1.15,2013-02-08 01:25:00,
2013-02-07 20:30:00,20.4,0.4,30.50,NNE,17,0.0,0.0,41,0.00,,,0.00,Wunderground v.1.15,2013-02-08 01:30:00,
2013-02-07 20:35:00,20.3,0.3,30.50,NE,52,0.0,1.0,41,0.00,,,0.00,Wunderground v.1.15,2013-02-08 01:35:00,
2013-02-07 20:40:00,20.2,0.2,30.50,NE,52,0.0,0.0,41,0.00,,,0.00,Wunderground v.1.15,2013-02-08 01:40:00,
2013-02-07 20:45:00,20.1,0.6,30.50,NE,52,0.0,1.0,42,0.00,,,0.00,Wunderground v.1.15,2013-02-08 01:45:00,
2013-02-07 20:55:00,20.0,1.5,30.50,NE,52,0.0,0.0,44,0.00,,,0.00,Wunderground v.1.15,2013-02-08 01:55:00,
2013-02-07 21:00:00,20.0,1.1,30.50,NE,52,0.0,0.0,43,0.00,,,0.00,Wunderground v.1.15,2013-02-08 02:00:00,
2013-02-07 21:10:00,20.0,1.5,30.50,NE,52,0.0,0.0,44,0.00,,,0.00,Wunderground v.1.15,2013-02-08 02:10:00,
2013-02-07 21:15:00,20.0,1.5,30.50,NE,52,0.0,0.0,44,0.00,,,0.00,Wunderground v.1.15,2013-02-08 02:15:00,
2013-02-07 21:20:00,20.0,1.5,30.50,NE,52,0.0,0.0,44,0.00,,,0.00,Wunderground v.1.15,2013-02-08 02:20:00,
2013-02-07 21:25:00,20.0,1.5,30.50,NE,52,0.0,1.0,44,0.00,,,0.00,Wunderground v.1.15,2013-02-08 02:25:00,
2013-02-07 21:30:00,20.0,1.1,30.50,NE,52,0.0,0.0,43,0.00,,,0.00,Wunderground v.1.15,2013-02-08 02:30:00,
2013-02-07 21:35:00,20.0,1.5,30.50,NE,52,0.0,0.0,44,0.00,,,0.00,Wunderground v.1.15,2013-02-08 02:35:00,
2013-02-07 21:40:00,20.0,2.0,30.50,NE,52,0.0,0.0,45,0.00,,,0.00,Wunderground v.1.15,2013-02-08 02:40:00,
2013-02-07 21:50:00,20.1,1.6,30.50,NE,52,0.0,0.0,44,0.00,,,0.00,Wunderground v.1.15,2013-02-08 02:50:00,
2013-02-07 21:55:00,20.1,0.6,30.50,NE,52,0.0,0.0,42,0.00,,,0.00,Wunderground v.1.15,2013-02-08 02:55:00,
2013-02-07 22:00:00,20.1,0.6,30.50,NE,52,0.0,0.0,42,0.00,,,0.00,Wunderground v.1.15,2013-02-08 03:00:00,
2013-02-07 22:05:00,20.1,0.1,30.50,NE,52,0.0,0.0,41,0.00,,,0.00,Wunderground v.1.15,2013-02-08 03:05:00,
2013-02-07 22:15:00,20.1,1.1,30.50,NE,52,0.0,0.0,43,0.00,,,0.00,Wunderground v.1.15,2013-02-08 03:15:00,
2013-02-07 22:25:00,20.1,0.6,30.49,SSE,160,0.0,0.0,42,0.00,,,0.00,Wunderground v.1.15,2013-02-08 03:25:00,
2013-02-07 22:30:00,20.1,0.1,30.49,SSE,160,0.0,0.0,41,0.00,,,0.00,Wunderground v.1.15,2013-02-08 03:30:00,
2013-02-07 22:35:00,20.1,0.6,30.49,South,179,0.0,0.0,42,0.00,,,0.00,Wunderground v.1.15,2013-02-08 03:35:00,
2013-02-07 22:40:00,20.0,0.6,30.49,South,178,0.0,0.0,42,0.00,,,0.00,Wunderground v.1.15,2013-02-08 03:40:00,
2013-02-07 22:45:00,20.0,0.6,30.49,South,178,0.0,0.0,42,0.00,,,0.00,Wunderground v.1.15,2013-02-08 03:45:00,
2013-02-07 22:50:00,20.0,1.1,30.49,South,178,0.0,0.0,43,0.00,,,0.00,Wunderground v.1.15,2013-02-08 03:50:00,
2013-02-07 22:55:00,20.0,0.6,30.49,South,180,0.0,0.0,42,0.00,,,0.00,Wunderground v.1.15,2013-02-08 03:55:00,
2013-02-07 23:00:00,19.9,1.0,30.50,South,180,0.0,0.0,43,0.00,,,0.00,Wunderground v.1.15,2013-02-08 04:00:00,
2013-02-07 23:10:00,19.9,0.5,30.50,South,180,0.0,0.0,42,0.00,,,0.00,Wunderground v.1.15,2013-02-08 04:10:00,
2013-02-07 23:15:00,19.9,1.0,30.50,South,180,0.0,0.0,43,0.00,,,0.00,Wunderground v.1.15,2013-02-08 04:15:00,
2013-02-07 23:20:00,19.9,1.0,30.50,South,180,0.0,0.0,43,0.00,,,0.00,Wunderground v.1.15,2013-02-08 04:20:00,
2013-02-07 23:25:00,19.9,0.5,30.50,ENE,75,0.0,0.0,42,0.00,,,0.00,Wunderground v.1.15,2013-02-08 04:25:00,
2013-02-07 23:30:00,20.0,1.5,30.50,ENE,75,0.0,0.0,44,0.00,,,0.00,Wunderground v.1.15,2013-02-08 04:30:00,
2013-02-07 23:35:00,19.9,1.0,30.50,ENE,75,0.0,0.0,43,0.00,,,0.00,Wunderground v.1.15,2013-02-08 04:35:00,
2013-02-07 23:40:00,20.0,1.1,30.50,ENE,75,0.0,0.0,43,0.00,,,0.00,Wunderground v.1.15,2013-02-08 04:40:00,
2013-02-07 23:45:00,20.0,1.1,30.49,ENE,75,0.0,0.0,43,0.00,,,0.00,Wunderground v.1.15,2013-02-08 04:45:00,
2013-02-07 23:50:00,20.0,1.1,30.49,ENE,75,0.0,0.0,43,0.00,,,0.00,Wunderground v.1.15,2013-02-08 04:50:00,